Location: Blankensee
(53.5126°N, 14.3055°E)
Time: 19:01:21
(UTC+00:00)

USA 267 - Pass Details

Date: 08 August 2020
Orbit: 1102 x 1106 km, 123.0° (Epoch: 18 September)

Event Time Altitude Azimuth Distance (km) Brightness Sun altitude
Rises 01:29:15 0° 122° (ESE) 3,913 6.2 -14.2°
Reaches altitude 10° 01:31:44 10° 125° (SE) 2,958 5.5 -14.0°
Maximum altitude 01:38:16 73° 210° (SSW) 1,150 3.2 -13.4°
Drops below altitude 10° 01:44:50 10° 295° (WNW) 2,969 5.4 -12.8°
Sets 01:47:20 0° 298° (WNW) 3,929 6.0 -12.6°
